Regional Weather Roundup
Issued by NWS Jackson, KY

Home | Current Version | Previous Version | Text Only | Print | Product List | Glossary On
Versions: 1 2 3 4 5 6 7 8 9 10 11 12 13 14 15 16 17 18 19 20 21 22 23 24 25 26 27 28 29 30 31 32 33 34 35 36 37 38 39 40 41 42 43 44 45 46 47 48 49 50
000
ASUS43 KJKL 212310
RWRJKL

EAST KENTUCKY HOURLY WEATHER ROUNDUP
NATIONAL WEATHER SERVICE JACKSON KY
700 PM EDT SAT APR 21 2018

NOTE: "FAIR" INDICATES FEW OR NO CLOUDS BELOW 12,000 FEET WITH
NO SIGNIFICANT WEATHER AND/OR OBSTRUCTIONS TO VISIBILITY.

* THESE REPORTS ARE NOT UNDER NWS QUALITY CONTROL AND MAY NOT
  REPORT WEATHER SUCH AS PRECIPITATION AND FOG.

KYZ079-080-083-085-087-088-110-112-115-119-120-220000
...EASTERN KENTUCKY...

CITY           SKY/WX    TMP DP  RH WIND       PRES   REMARKS
JACKSON          N/A     68  26  20 VRB5      30.25F
LONDON           N/A     70  26  19 NE3       30.22F
SOMERSET*        N/A     68  34  28 MISG      30.23F
MONTICELLO*      N/A     70  37  29 N14       30.23F
WILLIAMSBURG*    N/A     70  32  24 N5        30.21F
MIDDLESBORO*     N/A     72  32  23 E3        30.22F
HARLAN APT*      N/A     72  27  19 SE3       30.22F
PIKE CO APT*     N/A     65  25  21 N5        30.25F
BIG SANDY APT*   N/A     69  23  17 CALM      30.26S
MOREHEAD APT*    N/A     66  27  22 NW7       30.29S
ASHLAND*         N/A     63  26  24 NE5       30.29S
$$

KYZ035-036-041-042-044-050-067-078-099-220000
...CENTRAL KENTUCKY...

CITY           SKY/WX    TMP DP  RH WIND       PRES   REMARKS
MT STERLING*     N/A     63  32  31 N5        30.29S
FLEMING/MASON*   N/A     62  25  24 N7        30.30F
DANVILLE*        N/A     63  36  36 CALM      30.25F
LEXINGTON        N/A     62  33  33 NE10      30.27F
FRANKFORT        N/A     63  28  26 E6        30.25F
LOUISVILLE     PTSUNNY   68  26  20 E10       30.24F
GLASGOW*         N/A     69  36  29 NE7       30.19F
BOWLING GREEN    N/A     68  39  34 NE8       30.19F
$$

KYZ091>093-OHZ055-061-077-WVZ005-015-034-035-042-220000
...SOUTHERN OHIO/WEST VIRGINIA...

CITY           SKY/WX    TMP DP  RH WIND       PRES   REMARKS
COVINGTON      CLOUDY    59  19  21 E10       30.30F
COLUMBUS       CLOUDY    57  19  22 N8        30.35S
DAYTON         CLOUDY    54  24  31 NE8       30.35F
WILMINGTON       N/A     54  27  35 NE7       30.33F
HUNTINGTON       N/A     64  19  17 NE9       30.28S
CHARLESTON       N/A     66  18  15 N9        30.27S
PINEVILLE*       N/A     68  19  15 MISG      30.30F
BECKLEY          N/A     64  22  20 N14       30.27S
BLUEFIELD        N/A     63  16  16 S3        30.28F
LOGAN CO APT*    N/A     68  21  17 CALM      30.25F
$$

VAZ002-007-008-TNZ017-027-036-066-071-220000
...SOUTHWEST VIRGINIA/EAST TENNESSEE...

CITY           SKY/WX    TMP DP  RH WIND       PRES   REMARKS
WISE*            N/A     64  28  25 S3        30.28S
JONESVILLE*      N/A     72  32  23 CALM      30.25F
ABINGDON*        N/A     70  13  11 CALM      30.26F
BRISTOL        CLOUDY    69  38  32 CALM      30.24F
MORRISTOWN*    CLEAR     70  25  18 CALM      30.22F
SEVIERVILLE*   CLEAR     72  32  23 NE8       30.21F
KNOXVILLE      PTSUNNY   71  33  24 NE5       30.20F
LAFOLLETTE*    CLEAR     72  32  23 S3        30.24F
OAK RIDGE        N/A     73  28  18 CALM      30.22F
CROSSVILLE       N/A     67  28  23 VRB6      30.23F
NASHVILLE      PTSUNNY   74  32  21 VRB7      30.17F
$$

...KEY TO REMARKS...
VSB - VISIBILITY IN MILES
WCI - WIND CHILL INDEX
HX  - HEAT INDEX

$$



USA.gov is the U.S. government's official web portal to all federal, state and local government web resources and services.